EDT,Max TemperatureF,Mean TemperatureF,Min TemperatureF,Max Dew PointF,MeanDew PointF,Min DewpointF,Max Humidity, Mean Humidity, Min Humidity, Max Sea Level PressureIn, Mean Sea Level PressureIn, Min Sea Level PressureIn, Max VisibilityMiles, Mean VisibilityMiles, Min VisibilityMiles, Max Wind SpeedMPH, Mean Wind SpeedMPH, Max Gust SpeedMPH,PrecipitationIn, CloudCover, Events, WindDirDegrees
2013-8-1,82,77,72,77,73,70,100,87,74,30.02,29.96,29.92,10,8,2,20,9,24,0.68,6,Rain,229
2013-8-2,86,81,75,77,75,73,94,84,74,30.06,30.00,29.94,10,10,8,18,10,26,0.08,4,Rain,216
2013-8-3,85,82,78,77,76,75,91,83,74,30.05,30.02,29.95,10,10,10,13,8,18,0.00,2,,208
2013-8-4,91,81,71,75,72,67,94,77,59,30.02,29.94,29.90,10,10,7,15,4,21,0.00,2,,320
2013-8-5,84,76,68,68,63,59,97,71,44,30.08,30.04,29.99,10,10,9,15,7,21,0.00,0,,96
2013-8-6,82,78,73,68,65,60,84,69,54,30.07,30.04,29.99,10,10,10,12,4,16,T,1,Rain,143
2013-8-7,85,78,70,74,70,66,97,79,61,30.10,30.06,30.04,10,10,10,13,5,17,0.00,1,,101
2013-8-8,85,78,71,77,74,71,100,87,74,30.08,30.05,30.02,10,9,2,13,6,16,0.00,1,,176
2013-8-9,87,82,77,78,76,73,94,80,65,30.12,30.08,30.03,10,9,2,20,11,23,0.18,3,Rain,217
2013-8-10,88,82,75,78,76,74,100,83,65,30.14,30.11,30.07,10,10,10,22,10,28,0.00,0,,217
2013-8-11,91,84,77,79,76,74,94,77,59,30.14,30.09,30.05,10,10,10,20,9,25,0.00,1,,227
2013-8-12,92,86,79,79,76,73,94,75,56,30.08,30.02,29.97,10,10,8,18,10,24,0.00,2,,226
2013-8-13,90,85,79,79,76,74,94,81,68,29.98,29.90,29.83,10,10,9,22,13,29,0.00,1,,225
2013-8-14,83,75,66,77,72,63,97,86,74,30.04,29.93,29.83,10,8,2,18,7,18,0.49,6,Rain-Thunderstorm,4
2013-8-15,71,67,63,67,64,61,100,94,87,30.10,30.07,30.02,10,6,1,14,10,23,1.41,8,Rain,24
2013-8-16,77,71,65,72,68,63,100,88,76,30.11,30.08,30.05,10,8,1,16,8,20,0.75,8,Rain,31
2013-8-17,80,74,68,74,71,66,100,90,79,30.16,30.09,30.04,10,8,2,15,4,20,0.22,7,Rain,31
2013-8-18,84,77,70,77,72,69,100,87,74,30.21,30.17,30.13,10,8,3,10,3,12,0.00,1,,139
2013-8-19,85,79,73,78,74,73,100,87,74,30.16,30.11,30.07,10,7,0,13,4,17,0.37,4,Fog-Rain-Thunderstorm,63
2013-8-20,86,80,73,76,74,73,100,87,74,30.18,30.12,30.08,10,6,0,10,3,16,T,5,Fog,69
2013-8-21,86,79,72,77,74,71,100,85,70,30.23,30.17,30.12,10,10,2,14,5,20,0.01,1,Rain,166
2013-8-22,86,79,72,76,74,71,100,85,69,30.16,30.11,30.04,10,9,2,15,4,18,0.00,0,,230
2013-8-23,91,82,73,77,73,71,94,75,56,30.04,30.00,29.95,10,10,10,18,6,23,0.00,1,,250
2013-8-24,84,77,70,71,68,64,93,74,55,30.24,30.12,30.02,10,9,5,16,8,23,0.00,5,Thunderstorm,31
2013-8-25,82,74,65,65,63,61,93,72,51,30.32,30.27,30.24,10,10,10,18,9,28,0.00,1,,31
2013-8-26,84,74,64,66,62,58,93,70,47,30.28,30.22,30.14,10,10,10,14,5,16,0.00,1,,51
2013-8-27,83,75,66,67,64,61,93,72,51,30.15,30.07,30.01,10,10,10,15,7,20,0.00,1,,230
2013-8-28,87,79,71,74,70,64,90,76,61,30.03,29.98,29.94,10,10,10,18,9,23,T,1,Rain,227
2013-8-29,91,83,75,77,72,69,94,75,56,29.96,29.91,29.87,10,9,6,17,7,26,0.00,1,,266
2013-8-30,83,77,70,74,72,69,100,85,69,30.03,29.98,29.95,10,9,5,12,7,22,0.00,2,,56
2013-8-31,86,78,69,76,72,69,100,85,70,29.99,29.94,29.91,10,6,1,13,6,16,0.00,3,,56